• In United Kingdom
  • List of Countries
  • For 7 days
  • Water Temperature
  • Satellite Maps
  • Weather Map
  • Weather Widgets
  • user-avatar
    Login

    Hourly Weather Sucumin

    Today, 18 September, Tuesday

    Time Temperature Precipitation Wind Pressure Humidity
    00:00 +15°C° 0 mm 2 mps 754 mmHg 68%
    01:00 +15°C° 0 mm 2 mps 754 mmHg 68%
    02:00 +15°C° 0 mm 2 mps 754 mmHg 68%
    03:00 +15°C° 0 mm 2 mps 754 mmHg 68%
    04:00 +15°C° 0 mm 2 mps 754 mmHg 68%
    05:00 +15°C° 0 mm 2 mps 754 mmHg 68%
    06:00 +16°C° 0 mm 2 mps 754 mmHg 68%
    07:00 +17°C° 0 mm 2 mps 754 mmHg 66%
    08:00 +19°C° 0 mm 3 mps 754 mmHg 61%
    09:00 +21°C° 0 mm 3 mps 754 mmHg 55%
    10:00 +24°C° 0 mm 3 mps 754 mmHg 50%
    11:00 +25°C° 0 mm 3 mps 754 mmHg 46%
    12:00 +26°C° 0 mm 4 mps 754 mmHg 42%
    13:00 +27°C° 0 mm 4 mps 753 mmHg 39%
    14:00 +27°C° 0 mm 4 mps 753 mmHg 40%
    15:00 +27°C° 0 mm 3 mps 752 mmHg 42%
    16:00 +27°C° 0 mm 3 mps 752 mmHg 44%
    17:00 +25°C° 0 mm 3 mps 752 mmHg 50%
    18:00 +22°C° 0 mm 3 mps 752 mmHg 56%
    19:00 +20°C° 0 mm 2 mps 752 mmHg 62%
    20:00 +19°C° 0 mm 3 mps 752 mmHg 64%
    21:00 +19°C° 0 mm 3 mps 752 mmHg 66%
    22:00 +19°C° 0 mm 3 mps 752 mmHg 67%
    23:00 +18°C° 0 mm 3 mps 752 mmHg 70%

    Tomorrow, 19 September, Wednesday

    Time Temperature Precipitation Wind Pressure Humidity
    00:00 +18°C° 0 mm 3 mps 752 mmHg 73%
    01:00 +18°C° 0 mm 3 mps 752 mmHg 75%
    02:00 +17°C° 0 mm 3 mps 752 mmHg 77%
    03:00 +17°C° 0 mm 3 mps 752 mmHg 78%
    04:00 +17°C° 0 mm 3 mps 752 mmHg 80%
    05:00 +17°C° 0 mm 3 mps 752 mmHg 78%
    06:00 +18°C° 0 mm 3 mps 752 mmHg 77%
    07:00 +18°C° 0 mm 3 mps 752 mmHg 76%
    08:00 +20°C° 0 mm 3 mps 753 mmHg 70%
    09:00 +22°C° 0 mm 3 mps 753 mmHg 63%
    10:00 +25°C° 0 mm 3 mps 753 mmHg 57%
    11:00 +26°C° 0 mm 3 mps 754 mmHg 54%
    12:00 +27°C° 0 mm 3 mps 754 mmHg 50%
    13:00 +28°C° 0 mm 3 mps 754 mmHg 47%
    14:00 +27°C° 0 mm 3 mps 754 mmHg 48%
    15:00 +27°C° 0 mm 2 mps 754 mmHg 49%
    16:00 +27°C° 0 mm 2 mps 754 mmHg 50%
    17:00 +25°C° 0 mm 2 mps 754 mmHg 57%
    18:00 +23°C° 0 mm 1 mps 754 mmHg 64%
    19:00 +21°C° 0 mm 1 mps 754 mmHg 71%
    20:00 +20°C° 0 mm 1 mps 754 mmHg 72%
    21:00 +20°C° 0 mm 1 mps 754 mmHg 74%
    22:00 +19°C° 0 mm 1 mps 754 mmHg 76%
    23:00 +19°C° 0 mm 1 mps 754 mmHg 75%

    Day after tomorrow, 20 September, Thursday

    Time Temperature Precipitation Wind Pressure Humidity
    00:00 +18°C° 0 mm 2 mps 754 mmHg 74%
    01:00 +18°C° 0 mm 2 mps 754 mmHg 73%
    02:00 +18°C° 0 mm 2 mps 754 mmHg 73%
    03:00 +18°C° 0 mm 3 mps 753 mmHg 74%
    04:00 +18°C° 0 mm 3 mps 753 mmHg 74%
    05:00 +19°C° 0.1 mm 3 mps 753 mmHg 75%
    06:00 +19°C° 0.1 mm 3 mps 753 mmHg 75%
    07:00 +19°C° 0.1 mm 3 mps 753 mmHg 75%
    08:00 +21°C° 0 mm 3 mps 753 mmHg 69%
    09:00 +23°C° 0 mm 4 mps 753 mmHg 63%
    10:00 +26°C° 0 mm 4 mps 754 mmHg 57%
    11:00 +27°C° 0 mm 4 mps 753 mmHg 54%
    12:00 +28°C° 0 mm 4 mps 753 mmHg 51%
    13:00 +29°C° 0 mm 4 mps 753 mmHg 47%
    14:00 +29°C° 0 mm 4 mps 753 mmHg 49%
    15:00 +28°C° 0 mm 4 mps 753 mmHg 50%
    16:00 +28°C° 0 mm 3 mps 752 mmHg 51%
    17:00 +26°C° 0 mm 3 mps 752 mmHg 57%
    18:00 +24°C° 0 mm 2 mps 752 mmHg 64%
    19:00 +21°C° 0 mm 2 mps 752 mmHg 70%
    20:00 +21°C° 0 mm 2 mps 752 mmHg 72%
    21:00 +20°C° 0 mm 2 mps 752 mmHg 74%
    22:00 +20°C° 0 mm 2 mps 751 mmHg 76%
    23:00 +20°C° 0 mm 2 mps 751 mmHg 76%

    21 September, Friday

    Time Temperature Precipitation Wind Pressure Humidity
    00:00 +19°C° 0 mm 3 mps 751 mmHg 76%
    01:00 +19°C° 0 mm 3 mps 750 mmHg 75%
    02:00 +19°C° 0 mm 3 mps 750 mmHg 74%
    03:00 +19°C° 0 mm 3 mps 750 mmHg 73%
    04:00 +19°C° 0 mm 4 mps 749 mmHg 72%
    05:00 +20°C° 0 mm 4 mps 749 mmHg 70%
    06:00 +20°C° 0 mm 5 mps 749 mmHg 69%
    07:00 +20°C° 0 mm 5 mps 748 mmHg 67%
    08:00 +22°C° 0 mm 6 mps 748 mmHg 61%
    09:00 +24°C° 0 mm 6 mps 748 mmHg 56%
    10:00 +27°C° 0 mm 7 mps 747 mmHg 51%
    11:00 +28°C° 0 mm 7 mps 747 mmHg 46%
    12:00 +29°C° 0 mm 7 mps 746 mmHg 42%
    13:00 +29°C° 0 mm 8 mps 745 mmHg 38%
    14:00 +29°C° 0 mm 7 mps 745 mmHg 39%
    15:00 +28°C° 0 mm 6 mps 744 mmHg 40%
    16:00 +28°C° 0 mm 6 mps 743 mmHg 41%
    17:00 +27°C° 0.1 mm 6 mps 743 mmHg 44%
    18:00 +26°C° 0.1 mm 6 mps 743 mmHg 47%
    19:00 +24°C° 0.1 mm 6 mps 743 mmHg 50%
    20:00 +22°C° 0.5 mm 6 mps 743 mmHg 59%
    21:00 +20°C° 0.5 mm 6 mps 744 mmHg 69%
    22:00 +16°C° 0.5 mm 6 mps 744 mmHg 78%
    23:00 +15°C° 1.1 mm 6 mps 745 mmHg 81%

    22 September, Saturday

    Time Temperature Precipitation Wind Pressure Humidity
    00:00 +14°C° 1.1 mm 5 mps 745 mmHg 83%
    01:00 +12°C° 1.1 mm 4 mps 746 mmHg 85%
    02:00 +12°C° 0.9 mm 5 mps 747 mmHg 84%
    03:00 +12°C° 0.9 mm 5 mps 747 mmHg 83%
    04:00 +12°C° 0.9 mm 5 mps 748 mmHg 82%
    05:00 +12°C° 0.2 mm 5 mps 749 mmHg 81%
    06:00 +10°C° 0.2 mm 6 mps 749 mmHg 80%
    07:00 +10°C° 0.2 mm 6 mps 750 mmHg 79%
    08:00 +11°C° 0.1 mm 6 mps 750 mmHg 75%
    09:00 +11°C° 0.1 mm 6 mps 751 mmHg 71%
    10:00 +13°C° 0.1 mm 6 mps 751 mmHg 67%
    11:00 +14°C° 0.1 mm 6 mps 752 mmHg 62%
    12:00 +14°C° 0.1 mm 6 mps 752 mmHg 57%
    13:00 +15°C° 0.1 mm 6 mps 752 mmHg 51%
    14:00 +15°C° 0.1 mm 6 mps 752 mmHg 52%
    15:00 +15°C° 0.1 mm 6 mps 752 mmHg 53%
    16:00 +14°C° 0.1 mm 6 mps 752 mmHg 54%
    17:00 +13°C° 0 mm 5 mps 753 mmHg 59%
    18:00 +12°C° 0 mm 4 mps 753 mmHg 64%
    19:00 +11°C° 0 mm 4 mps 753 mmHg 68%
    20:00 +11°C° 0 mm 4 mps 753 mmHg 70%
    21:00 +11°C° 0 mm 4 mps 753 mmHg 72%
    22:00 +10°C° 0 mm 4 mps 753 mmHg 74%
    23:00 +10°C° 0 mm 4 mps 753 mmHg 75%

    23 September, Sunday

    Time Temperature Precipitation Wind Pressure Humidity
    00:00 +10°C° 0 mm 4 mps 753 mmHg 77%
    01:00 +8°C° 0 mm 4 mps 753 mmHg 78%
    02:00 +8°C° 0 mm 4 mps 753 mmHg 80%
    03:00 +8°C° 0 mm 4 mps 753 mmHg 83%
    04:00 +7°C° 0 mm 4 mps 753 mmHg 85%
    05:00 +8°C° 0 mm 4 mps 753 mmHg 84%
    06:00 +8°C° 0 mm 4 mps 753 mmHg 83%
    07:00 +8°C° 0 mm 4 mps 753 mmHg 83%
    08:00 +10°C° 0 mm 4 mps 753 mmHg 75%
    09:00 +12°C° 0 mm 4 mps 753 mmHg 67%
    10:00 +14°C° 0 mm 4 mps 753 mmHg 59%
    11:00 +14°C° 0 mm 4 mps 753 mmHg 55%
    12:00 +15°C° 0 mm 4 mps 752 mmHg 50%
    13:00 +17°C° 0 mm 4 mps 751 mmHg 46%
    14:00 +15°C° 0 mm 4 mps 751 mmHg 47%
    15:00 +15°C° 0 mm 4 mps 750 mmHg 48%
    16:00 +15°C° 0 mm 4 mps 749 mmHg 49%
    17:00 +14°C° 0.1 mm 5 mps 748 mmHg 52%
    18:00 +14°C° 0.1 mm 6 mps 747 mmHg 55%
    19:00 +13°C° 0.1 mm 6 mps 746 mmHg 57%
    20:00 +11°C° 1.8 mm 7 mps 745 mmHg 66%
    21:00 +11°C° 1.8 mm 7 mps 744 mmHg 75%
    22:00 +10°C° 1.8 mm 8 mps 743 mmHg 83%
    23:00 +10°C° 0.6 mm 9 mps 741 mmHg 84%
    Show more